Terminal Aerodrome Forecast
Issued by NWS Mt. Holly, NJ

Home | Current Version | Previous Version | Text Only | Print | Product List | Glossary On
Versions: 1 2 3 4 5 6 7 8 9 10 11 12 13 14 15 16 17 18 19 20 21 22 23
000
FTUS41 KPHI 160900 AAA
TAFACY
TAF AMD
KACY 160932Z 1610/1706 VRB03KT P6SM FEW030 BKN200
      TEMPO 1610/1613 BKN025 OVC050
     FM161600 33010KT P6SM SCT040=

USA.gov is the U.S. government's official web portal to all federal, state and local government web resources and services.